DW8744 Weather Reports


time (UTC)temp
C
wind
direction
speed
KPH
gust
KPH
rain 1hr
cm
rain 24hr
cm
rain mn
cm
humidity
%
barometer
mb
20260507201543 11 146 1.6 6.4 0.00 0.00 0.00 69 1015.1
20260507200041 11 168 3.2 8.0 0.00 0.00 0.00 71 1015.0
20260507194531 11 165 3.2 8.0 0.00 0.00 0.00 71 1014.9
20260507193029 11 180 1.6 8.0 0.00 0.00 0.00 72 1014.7
20260507191537 12 192 3.2 8.0 0.00 0.00 0.00 71 1014.8
20260507190046 12 235 4.8 9.7 0.00 0.00 0.00 71 1014.7
20260507184555 12 211 3.2 11.3 0.00 0.00 0.00 71 1014.6
20260507183108 12 221 3.2 16.1 0.00 0.00 0.00 71 1014.6
20260507181506 12 233 6.4 11.3 0.00 0.00 0.00 70 1014.6
20260507180028 12 229 3.2 9.7 0.00 0.00 0.00 72 1014.5
20260507174516 12 243 4.8 14.5 0.00 0.00 0.00 71 1014.3
20260507173054 13 221 6.4 16.1 0.00 0.00 0.00 72 1014.4
20260507171525 13 211 8.0 16.1 0.00 0.00 0.00 70 1014.4
20260507170045 13 189 4.8 14.5 0.00 0.00 0.00 68 1014.4
20260507164534 13 216 3.2 9.7 0.00 0.00 0.00 70 1014.5
20260507163028 12 201 1.6 4.8 0.00 0.00 0.00 73 1014.5
20260507161536 12 226 0.0 4.8 0.00 0.00 0.00 76 1014.5
20260507160042 12 195 0.0 3.2 0.00 0.00 0.00 78 1014.5
20260507154548 12 226 0.0 3.2 0.00 0.00 0.00 78 1014.5
20260507153104 12 216 1.6 4.8 0.00 0.00 0.00 77 1014.6
20260507151544 12 234 3.2 8.0 0.00 0.00 0.00 73 1014.5
20260507150054 13 214 4.8 9.7 0.00 0.00 0.00 66 1014.4
20260507144554 13 212 6.4 11.3 0.00 0.00 0.00 65 1014.3
20260507143004 13 137 4.8 9.7 0.00 0.00 0.00 67 1014.5
20260507141600 13 212 3.2 12.9 0.00 0.00 0.00 66 1014.6
20260507140010 13 181 6.4 12.9 0.00 0.00 0.00 63 1014.7
20260507134517 13 187 9.7 17.7 0.00 0.00 0.00 62 1014.7
20260507133009 14 103 9.7 17.7 0.00 0.00 0.00 62 1014.5
20260507131504 14 229 9.7 22.5 0.00 0.00 0.00 60 1014.6
20260507130017 15 126 9.7 19.3 0.00 0.00 0.00 59 1014.7
20260507124509 15 122 4.8 16.1 0.00 0.00 0.00 62 1014.6
20260507123006 14 177 6.4 14.5 0.00 0.00 0.00 62 1014.7
20260507121601 14 223 9.7 16.1 0.00 0.00 0.00 62 1014.8
20260507120101 14 200 8.0 19.3 0.00 0.00 0.00 62 1014.9
20260507114557 13 203 6.4 14.5 0.00 0.00 0.00 64 1015.0
20260507113049 13 136 8.0 20.9 0.00 0.00 0.00 66 1015.1
20260507111541 13 158 8.0 20.9 0.00 0.00 0.00 67 1015.1
20260507110056 12 206 4.8 16.1 0.00 0.00 0.00 68 1015.2
20260507104557 12 193 4.8 11.3 0.00 0.00 0.00 71 1015.3
20260507103109 11 129 6.4 17.7 0.00 0.00 0.00 71 1015.3
20260507101547 11 132 9.7 17.7 0.00 0.00 0.00 71 1015.3